Simultaneous Nadir Overpasses (SNOs) Predictions

Prediction of SNOs between METOP-C and LANDSAT-8 Satellite Orbit:

Table of predicted SNOs for the next 14.0 days since TLE Epoch: 12/17/2023
Index Date (METOP-C) Time (METOP-C) Lat,Lon (METOP-C) SZA (METOP-C ) Date (LANDSAT-8) Time (LANDSAT-8) Lat,Lon (LANDSAT-8) SZA (LANDSAT-8 ) Distance(km) Time Diff (sec)
1 12/17/2023 04:25:33 -81.12, -26.92 73.56 12/17/2023 04:26:13 -81.12, -26.81 73.54 1.86 40
2 12/17/2023 05:16:12 81.14, 141.21 106.54 12/17/2023 05:15:38 81.15, 141.29 106.54 1.41 34
3 12/19/2023 23:59:54 -81.12, 39.71 73.49 12/20/2023 00:00:29 -81.12, 39.74 73.48 0.39 35
4 12/20/2023 00:50:33 81.15,-152.13 106.61 12/20/2023 00:49:54 81.15,-152.19 106.59 1.07 39
5 12/22/2023 19:34:15 -81.13, 106.29 73.49 12/22/2023 19:34:45 -81.12, 106.13 73.50 2.86 30
6 12/22/2023 20:24:55 81.14, -85.91 106.57 12/22/2023 20:24:10 81.15, -85.83 106.56 1.49 45
7 12/25/2023 15:08:35 -81.13, 172.81 73.56 12/25/2023 15:08:59 -81.13, 172.73 73.55 1.27 24
8 12/25/2023 15:59:15 81.15, -19.38 106.51 12/25/2023 15:58:24 81.16, -19.25 106.50 2.37 51
9 12/28/2023 10:42:56 -81.13,-120.74 73.69 12/28/2023 10:43:14 -81.13,-120.83 73.69 1.47 18



Historial Predications of SNOs between METOP-C and LANDSAT-8
